User: anonymous   Login
Location: Batang Balui
(2.7000°N, 113.7833°E)
Time: 08:47:44
(UTC+00:00)
Language:

First-Move - Orbit

View from above orbital plane
View from above orbital plane
View from above satellite
View from above satellite

Ground track
Ground track

The orbit data is extracted from the following two-line orbital elements,

1 39439U 13066Z   24204.88347684  .00028784  00000-0  21888-2 0  9992
2 39439  97.7176 168.1986 0042035  21.4730 338.8245 15.01371252576230
Epoch (UTC): 22 July 2024 21:12:12
Eccentricity: 0.0042035
inclination: 97.7176°
perigee height: 533 km
apogee height: 592 km
right ascension of ascending node: 168.1986°
argument of perigee: 21.4730°
revolutions per day: 15.01371252
mean anomaly at epoch: 338.8245°
orbit number at epoch: 57623

The dashed part of the orbit path shows where the satellite is in the earth's shadow,  

DLR